Regional Weather Roundup
Issued by NWS

Home | Current Version | Previous Version | Graphics & Text | Print | Product List | Glossary On
Versions: 1 2 3 4 5 6 7 8 9 10 11 12 13 14 15 16 17 18 19 20 21 22 23 24 25 26 27 28 29 30 31 32 33 34 35 36 37 38 39 40 41 42 43 44 45 46 47 48 49 50
000
ASUS45 KBOI 050110
RWRID

IDAHO REGIONAL WEATHER ROUNDUP
NATIONAL WEATHER SERVICE BOISE ID
700 PM MDT SAT JUL 04 2015

NOTE: "FAIR" INDICATES FEW OR NO CLOUDS BELOW 12000 FEET
WITH NO SIGNIFICANT WEATHER AND/OR OBSTRUCTIONS TO VISIBILITY

IDZ012-014-050200-
SOUTHWEST IDAHO


CITY           SKY/WX    TMP DP  RH WIND       PRES   REMARKS
BOISE          PTSUNNY   98  35  11 N8        29.75F HX  93
CALDWELL       PTSUNNY   99  46  16 NE6       29.73  HX  95
MOUNTAIN HOME  PTSUNNY   99  30   8 N15       29.75F HX  92
$$

IDZ016-017-050200-
SOUTHCENTRAL IDAHO


CITY           SKY/WX    TMP DP  RH WIND       PRES   REMARKS
BURLEY         PTSUNNY   89  47  23 W7        29.84S
JEROME         PTSUNNY   93  40  15 SW7       29.85S
TWIN FALLS     CLOUDY    94  41  16 S14G20    29.85R HX  90
$$

IDZ019>023-050200-
SOUTHEAST IDAHO


CITY           SKY/WX    TMP DP  RH WIND       PRES   REMARKS
IDAHO FALLS    PTSUNNY   90  43  19 S12G17    29.87F
POCATELLO      SUNNY     91  45  20 SW13      29.86F
REXBURG        PTSUNNY   90  41  18 S9        29.88F
$$

IDZ006-010-011-018-031-032-050200-
CENTRAL IDAHO MOUNTAINS


CITY           SKY/WX    TMP DP  RH WIND       PRES   REMARKS
MCCALL         CLOUDY    86  23  10 S8        29.91S
STANLEY          N/A     82  37  20 W8        30.04F
SALMON         PTSUNNY   90  50  25 N6        29.74S
CHALLIS        CLOUDY    92  28  10 W13       29.85S
$$

IDZ002-004-006-007-026-050200-
NORTHERN IDAHO


CITY           SKY/WX    TMP DP  RH WIND       PRES   REMARKS
LEWISTON       PTSUNNY  100  42  13 NW12      29.64F HX  95
LOWELL           N/A     88  59  37 CALM      29.63S
COEUR D`ALENE  SUNNY     95  45  17 SW8       29.68F HX  91
MULLAN PASS    SUNNY     76  40  27 VRB3      30.00F
$$



USA.gov is the U.S. government's official web portal to all federal, state and local government web resources and services.